Location: Newark
(44.9333°N, 0.5667°E)
Time: 19:07:14
(UTC+00:00)

N. Korean satellite - Pass Details

Date: 15 December 2019
Orbit: 454 x 507 km, 97.2° (Epoch: 28 January)

Event Time Altitude Azimuth Distance (km) Brightness Sun altitude
Rises 18:11:31 0° 215° (SW) 2,596 11.0 -19.4°
Reaches altitude 10° 18:14:56 10° 249° (WSW) 1,712 10.5 -20.0°
Maximum altitude 18:16:14 12° 270° (W) 1,616 10.3 -20.2°
Drops below altitude 10° 18:17:32 10° 291° (WNW) 1,710 10.1 -20.4°
Sets 18:20:56 0° 326° (NW) 2,589 10.5 -21.0°
